Regional Weather Roundup
Issued by NWS

Home | Current Version | Previous Version | Graphics & Text | Print | Product List | Glossary On
Versions: 1 2 3 4 5 6 7 8 9 10 11 12 13 14 15 16 17 18 19 20 21 22 23 24 25 26 27 28 29 30 31 32 33 34 35 36 37 38 39 40 41 42 43 44 45 46 47 48 49 50
482
ASUS43 KOAX 242110
RWRNE

WEATHER ROUNDUP FOR NEBRASKA
NATIONAL WEATHER SERVICE OMAHA NE
400 PM CDT TUE APR 24 2018

NOTES: SATELLITE DATA IS BEING USED TO AUGMENT CLOUD COVER ABOVE
       12000 FEET.
       "FAIR" INDICATES FEW OR NO CLOUDS BELOW 12,000 FEET WITH NO
       SIGNIFICANT WEATHER AND/OR OBSTRUCTIONS TO VISIBILITY.


NEZ001>004-019>022-054>056-242200-
NEBRASKA PANHANDLE

CITY           SKY/WX    TMP DP  RH WIND       PRES   REMARKS
SCOTTSBLUFF    CLOUDY    42  33  70 N15       30.42F
ALLIANCE       CLOUDY    39  31  72 N22G29    30.40F WCI  29
CHADRON        LGT RAIN  43  32  65 NE18G24   30.46F
GORDON         CLOUDY    38  32  78 N20G28    30.41S WCI  28
KIMBALL        CLOUDY    39  31  71 N18       30.39S WCI  30
SIDNEY         CLOUDY    40  31  70 N21       30.39F WCI  30
$$

NEZ057>060-069>072-079>082-242200-
SOUTHWEST NEBRASKA

CITY           SKY/WX    TMP DP  RH WIND       PRES   REMARKS
NORTH PLATTE   CLOUDY    43  36  76 N20G29    30.33S
IMPERIAL       CLOUDY    43  36  76 NW24G32   30.34F
LEXINGTON      CLOUDY    44  39  82 N23       30.30F
MCCOOK         CLOUDY    44  39  82 NW21      30.31F
OGALLALA       CLOUDY    44  35  72 N18G29    30.37S
$$

NEZ005>010-023>029-035>040-094-242200-
NORTH CENTRAL NEBRASKA

CITY           SKY/WX    TMP DP  RH WIND       PRES   REMARKS
VALENTINE      CLOUDY    40  36  86 N18G36    30.37R WCI  31
AINSWORTH      CLOUDY    38  38 100 N20G30    30.34R FOG     WCI  27
BROKEN BOW     CLOUDY    42  39  89 NW22G32   30.28S
O`NEILL        CLOUDY    46  44  93 N15G21    30.26R FOG
ORD            CLOUDY    45  44  97 NW21G28   30.23F FOG
THEDFORD       DRIZZLE   40  37  89 N22G28    30.35S WCI  29
$$

NEZ041-046>049-061>064-073>077-083>087-242200-
SOUTH CENTRAL NEBRASKA

CITY           SKY/WX    TMP DP  RH WIND       PRES   REMARKS
GRAND ISLAND   LGT RAIN  46  43  89 NW14      30.24F
AURORA         LGT RAIN  46  44  94 NW18      30.23F
HASTINGS       LGT RAIN  45  44  97 NW20      30.23F
HEBRON         LGT RAIN  49  47  91 NW12      30.23F
HOLDREGE       DRIZZLE   44  41  90 NW17G25   30.27S
KEARNEY        CLOUDY    45  41  86 NW17      30.26F
YORK           LGT RAIN  46  46 100 NW16      30.22F
$$

NEZ011>018-030>034-042>045-242200-
NORTHEAST NEBRASKA

CITY           SKY/WX    TMP DP  RH WIND       PRES   REMARKS
NORFOLK        LGT RAIN  48  47  96 W8        30.19S
ALBION         LGT RAIN  47  46  94 NW8       30.21F
BLAIR          CLOUDY    63  43  48 NW18G24   30.13R
COLUMBUS       LGT RAIN  49  47  93 NW13      30.22F
FREMONT        CLOUDY    57  47  70 NW17      30.18S
TEKAMAH        CLOUDY    62  45  53 NW22      30.15R
WAYNE          LGT RAIN  52  51  97 N10       30.20S
$$

NEZ050>053-065>068-078-088>093-242200-
SOUTHEAST NEBRASKA

CITY           SKY/WX    TMP DP  RH WIND       PRES   REMARKS
LINCOLN        CLOUDY    57  46  66 NW18      30.20R
OMAHA EPPLEY   CLOUDY    68  41  37 NW22      30.10R
BEATRICE       CLOUDY    60  47  63 NW18G28   30.19R
FALLS CITY     CLOUDY    74  33  22 NW9       30.07F
NEBRASKA CITY  CLOUDY    68  45  43 NW23G31   30.10R
PLATTSMOUTH    CLOUDY    69  42  37 NW23G29   30.10R
$$

NEZ044-045-051>053-067-242200-
OMAHA AREA

CITY           SKY/WX    TMP DP  RH WIND       PRES   REMARKS
OMAHA EPPLEY   CLOUDY    68  41  37 NW22      30.10R
BLAIR          CLOUDY    63  43  48 NW18G24   30.13R
FREMONT        CLOUDY    57  47  70 NW17      30.18S
MILLARD        CLOUDY    65  44  46 NW20G26   30.13S
OFFUTT AFB     PTSUNNY   68  42  37 NW20      30.09S
PLATTSMOUTH    CLOUDY    69  42  37 NW23G29   30.10R
WAHOO          FAIR      58  45  60 NW16      30.17S
$$




USA.gov is the U.S. government's official web portal to all federal, state and local government web resources and services.